VLG8TM LEPA-LEGR

Flight info

Callsign VLG8TM
Flight time 1h 11m
Altitude 37000
Route EPAMA DCT VLC DCT SERRA DCT ASTRO DCT POBOS DCT XEBAR DCT YES DCT MAMIS DCT BAZAS DCT VIBAS
Aircraft A320/M-SDE3FGHIRWY/LB1

Departure

Time 2026-04-21 16:25
Airport Palma de Mallorca Airport (LEPA)

Arrival

Time 2026-04-21 17:36
Airport F.G.L. Airport Granada-Jaén Airport (LEGR)
Time Latitude Longitude Altitude Speed Heading
2026-04-21 15:57 39.54517 2.73227 39 ft 0 kts 346°
2026-04-21 16:15 39.54493 2.73235 38 ft 4 kts 346°
2026-04-21 16:15 39.54472 2.73241 36 ft 4 kts
2026-04-21 16:15 39.54450 2.73228 36 ft 4 kts 52°
2026-04-21 16:15 39.54437 2.73203 36 ft 2 kts 58°
2026-04-21 16:16 39.54436 2.73200 36 ft 0 kts 58°
2026-04-21 16:18 39.54448 2.73225 34 ft 8 kts 58°
2026-04-21 16:18 39.54494 2.73322 38 ft 17 kts 58°
2026-04-21 16:18 39.54553 2.73445 38 ft 15 kts 58°
2026-04-21 16:19 39.54607 2.73553 38 ft 14 kts 55°
2026-04-21 16:19 39.54654 2.73653 38 ft 12 kts 63°
2026-04-21 16:19 39.54693 2.73745 38 ft 11 kts 59°
2026-04-21 16:19 39.54730 2.73825 38 ft 10 kts 59°
2026-04-21 16:20 39.54768 2.73899 38 ft 11 kts 56°
2026-04-21 16:20 39.54813 2.73983 38 ft 11 kts 40°
2026-04-21 16:20 39.54875 2.73977 38 ft 9 kts 331°
2026-04-21 16:20 39.54923 2.73965 38 ft 6 kts 28°
2026-04-21 16:21 39.54956 2.74007 38 ft 6 kts 26°
2026-04-21 16:21 39.55006 2.73985 38 ft 12 kts 330°
2026-04-21 16:21 39.55104 2.73906 38 ft 21 kts 329°
2026-04-21 16:21 39.55240 2.73797 38 ft 23 kts 329°
2026-04-21 16:22 39.55380 2.73687 38 ft 25 kts 328°
2026-04-21 16:22 39.55526 2.73572 38 ft 25 kts 328°
2026-04-21 16:22 39.55653 2.73513 37 ft 16 kts 36°
2026-04-21 16:22 39.55712 2.73620 38 ft 14 kts 59°
2026-04-21 16:23 39.55766 2.73734 38 ft 19 kts 58°
2026-04-21 16:23 39.55852 2.73917 38 ft 27 kts 58°
2026-04-21 16:23 39.55953 2.74130 38 ft 25 kts 60°
2026-04-21 16:23 39.56041 2.74268 38 ft 16 kts 25°
2026-04-21 16:24 39.56135 2.74333 36 ft 14 kts 28°
2026-04-21 16:24 39.56221 2.74323 38 ft 12 kts 319°
2026-04-21 16:24 39.56213 2.74234 36 ft 11 kts 238°
2026-04-21 16:24 39.56153 2.74108 38 ft 33 kts 238°
2026-04-21 16:25 39.55892 2.73558 38 ft 106 kts 238°
2026-04-21 16:25 39.55402 2.72523 48 ft 160 kts 238°
2026-04-21 16:25 39.54808 2.71270 651 ft 163 kts 238°
2026-04-21 16:25 39.54200 2.70026 1406 ft 165 kts 235°
2026-04-21 16:26 39.53549 2.68733 1994 ft 178 kts 235°
2026-04-21 16:26 39.52843 2.67342 2446 ft 192 kts 235°
2026-04-21 16:26 39.52077 2.65834 2863 ft 209 kts 235°
2026-04-21 16:26 39.51249 2.64207 3329 ft 223 kts 234°
2026-04-21 16:27 39.50383 2.62509 3986 ft 228 kts 235°
2026-04-21 16:27 39.49511 2.60799 4809 ft 227 kts 235°
2026-04-21 16:27 39.48638 2.59086 5571 ft 229 kts 235°
2026-04-21 16:27 39.47754 2.57352 6325 ft 232 kts 235°
2026-04-21 16:28 39.46863 2.55601 7038 ft 234 kts 235°
2026-04-21 16:28 39.45964 2.53838 7766 ft 236 kts 236°
2026-04-21 16:28 39.45054 2.52052 8421 ft 243 kts 237°
2026-04-21 16:28 39.44098 2.50155 8885 ft 260 kts 237°
2026-04-21 16:29 39.43085 2.48131 9345 ft 277 kts 237°
2026-04-21 16:29 39.42014 2.45986 9931 ft 288 kts 238°
2026-04-21 16:29 39.40905 2.43761 10410 ft 303 kts 238°
2026-04-21 16:29 39.39746 2.41441 10788 ft 319 kts 238°
2026-04-21 16:30 39.38513 2.38980 11238 ft 332 kts 238°
2026-04-21 16:30 39.37244 2.36452 11930 ft 337 kts 238°
2026-04-21 16:30 39.35965 2.33910 12702 ft 339 kts 238°
2026-04-21 16:30 39.34674 2.31346 13479 ft 341 kts 238°
2026-04-21 16:31 39.33376 2.28774 14180 ft 343 kts 238°
2026-04-21 16:31 39.32070 2.26191 14838 ft 345 kts 238°
2026-04-21 16:31 39.30752 2.23586 15484 ft 347 kts 238°
2026-04-21 16:31 39.29428 2.20969 16128 ft 350 kts 238°
2026-04-21 16:32 39.28095 2.18335 16756 ft 352 kts 238°
2026-04-21 16:32 39.26746 2.15675 17382 ft 355 kts 238°
2026-04-21 16:32 39.25458 2.13132 17974 ft 357 kts 239°
2026-04-21 16:32 39.24095 2.10438 18542 ft 360 kts 239°
2026-04-21 16:33 39.22719 2.07720 19065 ft 363 kts 239°
2026-04-21 16:33 39.21333 2.04988 19603 ft 366 kts 239°
2026-04-21 16:33 39.19931 2.02232 20125 ft 369 kts 238°
2026-04-21 16:33 39.18517 1.99460 20649 ft 372 kts 238°
2026-04-21 16:34 39.17090 1.96662 21171 ft 375 kts 239°
2026-04-21 16:34 39.15777 1.93756 21689 ft 376 kts 247°
2026-04-21 16:34 39.14891 1.90596 22198 ft 377 kts 256°
2026-04-21 16:34 39.14207 1.87322 22708 ft 380 kts 256°
2026-04-21 16:35 39.13511 1.84025 23201 ft 383 kts 256°
2026-04-21 16:35 39.12804 1.80704 23646 ft 386 kts 256°
2026-04-21 16:35 39.12090 1.77363 24049 ft 388 kts 256°
2026-04-21 16:35 39.11371 1.74003 24461 ft 390 kts 256°
2026-04-21 16:36 39.10644 1.70625 24856 ft 392 kts 256°
2026-04-21 16:36 39.09912 1.67236 25247 ft 394 kts 256°
2026-04-21 16:36 39.09176 1.63833 25620 ft 396 kts 256°
2026-04-21 16:36 39.08439 1.60412 25995 ft 398 kts 256°
2026-04-21 16:37 39.07708 1.57019 26359 ft 399 kts 256°
2026-04-21 16:37 39.06964 1.53570 26713 ft 402 kts 256°
2026-04-21 16:37 39.06215 1.50099 27079 ft 403 kts 256°
2026-04-21 16:37 39.05460 1.46609 27436 ft 405 kts 256°
2026-04-21 16:38 39.04701 1.43114 27779 ft 407 kts 256°
2026-04-21 16:38 39.03935 1.39595 28117 ft 409 kts 256°
2026-04-21 16:38 39.03164 1.36066 28459 ft 411 kts 255°
2026-04-21 16:38 39.02387 1.32525 28784 ft 412 kts 255°
2026-04-21 16:39 39.01609 1.28964 29130 ft 414 kts 256°
2026-04-21 16:39 39.00829 1.25393 29436 ft 416 kts 256°
2026-04-21 16:39 39.00044 1.21801 29730 ft 418 kts 255°
2026-04-21 16:39 38.99258 1.18206 30012 ft 419 kts 255°
2026-04-21 16:40 38.98465 1.14594 30257 ft 421 kts 255°
2026-04-21 16:40 38.97666 1.10966 30484 ft 422 kts 255°
2026-04-21 16:40 38.96864 1.07333 30724 ft 423 kts 255°
2026-04-21 16:40 38.96058 1.03694 30958 ft 424 kts 255°
2026-04-21 16:41 38.95524 1.01283 31104 ft 425 kts 255°
2026-04-21 16:41 38.94440 0.96392 31428 ft 425 kts 255°
2026-04-21 16:41 38.93632 0.92753 31739 ft 423 kts 255°
2026-04-21 16:41 38.92826 0.89128 32073 ft 421 kts 255°
2026-04-21 16:42 38.92021 0.85520 32386 ft 420 kts 255°
2026-04-21 16:42 38.91219 0.81922 32701 ft 418 kts 255°
2026-04-21 16:42 38.90428 0.78381 33010 ft 417 kts 255°
2026-04-21 16:42 38.89618 0.74765 33313 ft 416 kts 255°
2026-04-21 16:43 38.88828 0.71253 33618 ft 414 kts 255°
2026-04-21 16:43 38.88016 0.67709 33928 ft 413 kts 252°
2026-04-21 16:43 38.86979 0.64271 34194 ft 413 kts 249°
2026-04-21 16:43 38.85909 0.60863 34433 ft 412 kts 249°
2026-04-21 16:44 38.84842 0.57460 34676 ft 411 kts 249°
2026-04-21 16:44 38.83775 0.54060 34900 ft 410 kts 249°
2026-04-21 16:44 38.82713 0.50670 35117 ft 409 kts 249°
2026-04-21 16:44 38.81639 0.47737 35312 ft 410 kts 242°
2026-04-21 16:45 38.80103 0.44658 35517 ft 410 kts 238°
2026-04-21 16:45 38.78527 0.41615 35706 ft 410 kts 238°
2026-04-21 16:45 38.76952 0.38576 35894 ft 409 kts 238°
2026-04-21 16:45 38.75379 0.35542 36082 ft 408 kts 238°
2026-04-21 16:46 38.73809 0.32514 36266 ft 408 kts 238°
2026-04-21 16:46 38.72241 0.29489 36433 ft 408 kts 238°
2026-04-21 16:46 38.70676 0.26469 36603 ft 407 kts 238°
2026-04-21 16:46 38.69110 0.23447 36778 ft 406 kts 238°
2026-04-21 16:47 38.67551 0.20440 36874 ft 405 kts 238°
2026-04-21 16:47 38.64439 0.14448 36892 ft 404 kts 238°
2026-04-21 16:48 38.61327 0.08478 36894 ft 404 kts 238°
2026-04-21 16:48 38.58207 0.02510 36894 ft 404 kts 238°
2026-04-21 16:49 38.55085 -0.03455 36895 ft 404 kts 238°
2026-04-21 16:49 38.51967 -0.09416 36898 ft 404 kts 238°
2026-04-21 16:50 38.48849 -0.15381 36895 ft 404 kts 238°
2026-04-21 16:50 38.45722 -0.21333 36893 ft 404 kts 237°
2026-04-21 16:51 38.42598 -0.27232 36891 ft 404 kts 237°
2026-04-21 16:51 38.39458 -0.33165 36887 ft 404 kts 237°
2026-04-21 16:52 38.36322 -0.39105 36883 ft 404 kts 237°
2026-04-21 16:52 38.33689 -0.44080 36883 ft 404 kts 237°
2026-04-21 16:53 38.30036 -0.50973 36879 ft 405 kts 237°
2026-04-21 16:53 38.26923 -0.56940 36877 ft 404 kts 242°
2026-04-21 16:54 38.24519 -0.63397 36875 ft 404 kts 246°
2026-04-21 16:54 38.22189 -0.69898 36875 ft 404 kts 246°
2026-04-21 16:55 38.19845 -0.76393 36872 ft 404 kts 245°
2026-04-21 16:55 38.17490 -0.82892 36870 ft 405 kts 245°
2026-04-21 16:56 38.15533 -0.88280 36865 ft 405 kts 245°
2026-04-21 16:56 38.12787 -0.95833 36857 ft 405 kts 245°
2026-04-21 16:57 38.10807 -1.01268 36855 ft 405 kts 245°
2026-04-21 16:57 38.08437 -1.07766 36851 ft 405 kts 245°
2026-04-21 16:58 38.06080 -1.14209 36848 ft 406 kts 245°
2026-04-21 16:58 38.03701 -1.20700 36848 ft 406 kts 245°
2026-04-21 16:59 38.01321 -1.27188 36847 ft 406 kts 245°
2026-04-21 16:59 37.98928 -1.33676 36849 ft 406 kts 245°
2026-04-21 17:00 37.96531 -1.40161 36850 ft 406 kts 245°
2026-04-21 17:00 37.94127 -1.46647 36850 ft 407 kts 245°
2026-04-21 17:01 37.91470 -1.52961 36849 ft 407 kts 233°
2026-04-21 17:01 37.87347 -1.57873 36847 ft 411 kts 214°
2026-04-21 17:02 37.82269 -1.61267 36848 ft 413 kts 210°
2026-04-21 17:02 37.79910 -1.63289 36849 ft 409 kts 225°
2026-04-21 17:02 37.78103 -1.66043 36845 ft 407 kts 240°
2026-04-21 17:02 37.77004 -1.69325 36848 ft 408 kts 255°
2026-04-21 17:03 37.76361 -1.72774 36855 ft 409 kts 256°
2026-04-21 17:03 37.75081 -1.79779 36866 ft 410 kts 256°
2026-04-21 17:04 37.73779 -1.86792 36867 ft 410 kts 256°
2026-04-21 17:04 37.72462 -1.93801 36879 ft 410 kts 256°
2026-04-21 17:05 37.71134 -2.00809 36902 ft 411 kts 256°
2026-04-21 17:05 37.69806 -2.07829 36913 ft 411 kts 256°
2026-04-21 17:06 37.68472 -2.14853 36716 ft 414 kts 256°
2026-04-21 17:06 37.67796 -2.18392 35958 ft 416 kts 256°
2026-04-21 17:06 37.67120 -2.21939 35267 ft 415 kts 255°
2026-04-21 17:06 37.66448 -2.25459 34803 ft 409 kts 255°
2026-04-21 17:07 37.65786 -2.28929 34302 ft 405 kts 255°
2026-04-21 17:07 37.65129 -2.32369 33788 ft 401 kts 255°
2026-04-21 17:07 37.64478 -2.35771 33271 ft 397 kts 255°
2026-04-21 17:07 37.63831 -2.39129 32792 ft 391 kts 255°
2026-04-21 17:08 37.63191 -2.42446 32309 ft 387 kts 255°
2026-04-21 17:08 37.62557 -2.45730 31833 ft 383 kts 255°
2026-04-21 17:08 37.61930 -2.48976 31361 ft 380 kts 255°
2026-04-21 17:08 37.61305 -2.52195 30907 ft 376 kts 255°
2026-04-21 17:09 37.60063 -2.58555 29983 ft 371 kts 255°
2026-04-21 17:09 37.59447 -2.61694 29501 ft 367 kts 255°
2026-04-21 17:09 37.58841 -2.64798 29061 ft 363 kts 255°
2026-04-21 17:10 37.58245 -2.67872 28628 ft 359 kts 255°
2026-04-21 17:10 37.57655 -2.70911 28215 ft 354 kts 255°
2026-04-21 17:10 37.57072 -2.73907 27797 ft 350 kts 255°
2026-04-21 17:10 37.56493 -2.76866 27411 ft 346 kts 255°
2026-04-21 17:11 37.55917 -2.79801 27022 ft 344 kts 255°
2026-04-21 17:11 37.55345 -2.82715 26639 ft 341 kts 255°
2026-04-21 17:11 37.54776 -2.85610 26257 ft 340 kts 255°
2026-04-21 17:11 37.54207 -2.88489 25879 ft 338 kts 255°
2026-04-21 17:12 37.53639 -2.91354 25493 ft 336 kts 255°
2026-04-21 17:12 37.53075 -2.94199 25099 ft 334 kts 255°
2026-04-21 17:12 37.52512 -2.97034 24708 ft 332 kts 255°
2026-04-21 17:12 37.51955 -2.99847 24299 ft 330 kts 255°
2026-04-21 17:13 37.51401 -3.02642 23902 ft 328 kts 255°
2026-04-21 17:13 37.50850 -3.05425 23500 ft 327 kts 255°
2026-04-21 17:13 37.50300 -3.08190 23028 ft 324 kts 255°
2026-04-21 17:13 37.49753 -3.10934 22607 ft 322 kts 255°
2026-04-21 17:14 37.49218 -3.13621 22210 ft 320 kts 255°
2026-04-21 17:14 37.48678 -3.16324 21812 ft 317 kts 255°
2026-04-21 17:14 37.48141 -3.19010 21408 ft 316 kts 255°
2026-04-21 17:14 37.47605 -3.21682 21015 ft 313 kts 255°
2026-04-21 17:15 37.47071 -3.24335 20625 ft 311 kts 255°
2026-04-21 17:15 37.46542 -3.26968 20239 ft 309 kts 255°
2026-04-21 17:15 37.46017 -3.29588 19853 ft 308 kts 255°
2026-04-21 17:15 37.45494 -3.32189 19470 ft 306 kts 255°
2026-04-21 17:16 37.44972 -3.34775 19090 ft 304 kts 255°
2026-04-21 17:16 37.44450 -3.37353 18715 ft 303 kts 255°
2026-04-21 17:16 37.43931 -3.39919 18344 ft 302 kts 255°
2026-04-21 17:16 37.43413 -3.42474 17941 ft 301 kts 255°
2026-04-21 17:17 37.42899 -3.45022 17565 ft 299 kts 255°
2026-04-21 17:17 37.42388 -3.47549 17200 ft 297 kts 255°
2026-04-21 17:17 37.41879 -3.50058 16836 ft 295 kts 255°
2026-04-21 17:17 37.41371 -3.52555 16485 ft 294 kts 255°
2026-04-21 17:18 37.40862 -3.55040 16129 ft 293 kts 255°
2026-04-21 17:18 37.40358 -3.57512 15776 ft 291 kts 255°
2026-04-21 17:18 37.39855 -3.59983 15394 ft 291 kts 255°
2026-04-21 17:18 37.39286 -3.62425 15007 ft 291 kts 247°
2026-04-21 17:19 37.38327 -3.64659 14622 ft 291 kts 234°
2026-04-21 17:19 37.37129 -3.66714 14238 ft 291 kts 234°
2026-04-21 17:19 37.35933 -3.68770 13849 ft 292 kts 234°
2026-04-21 17:19 37.34733 -3.70838 13434 ft 293 kts 234°
2026-04-21 17:20 37.33533 -3.72906 13037 ft 293 kts 234°
2026-04-21 17:20 37.32335 -3.74975 12636 ft 292 kts 234°
2026-04-21 17:20 37.31144 -3.77033 12277 ft 290 kts 234°
2026-04-21 17:20 37.29959 -3.79078 11907 ft 289 kts 234°
2026-04-21 17:21 37.28769 -3.81116 11512 ft 289 kts 233°
2026-04-21 17:21 37.27577 -3.83144 11117 ft 289 kts 233°
2026-04-21 17:21 37.26394 -3.85177 10724 ft 288 kts 234°
2026-04-21 17:21 37.25219 -3.87208 10356 ft 288 kts 234°
2026-04-21 17:22 37.24440 -3.88555 10103 ft 287 kts 234°
2026-04-21 17:22 37.22889 -3.91229 9587 ft 285 kts 234°
2026-04-21 17:22 37.21707 -3.93261 9167 ft 284 kts 233°
2026-04-21 17:22 37.20564 -3.95225 8769 ft 282 kts 233°
2026-04-21 17:23 37.19635 -3.97367 8359 ft 281 kts 253°
2026-04-21 17:23 37.19504 -3.99794 7963 ft 281 kts 278°
2026-04-21 17:23 37.20223 -4.02060 7586 ft 283 kts 304°
2026-04-21 17:23 37.21444 -4.03967 7445 ft 278 kts 307°
2026-04-21 17:24 37.22650 -4.05841 7127 ft 274 kts 306°
2026-04-21 17:24 37.23834 -4.07704 6981 ft 263 kts 306°
2026-04-21 17:24 37.24919 -4.09418 6990 ft 248 kts 306°
2026-04-21 17:24 37.26000 -4.11130 6990 ft 251 kts 306°
2026-04-21 17:25 37.26985 -4.12918 6987 ft 247 kts 288°
2026-04-21 17:25 37.27102 -4.14995 6985 ft 239 kts 249°
2026-04-21 17:25 37.26191 -4.16689 6975 ft 237 kts 219°
2026-04-21 17:25 37.24811 -4.17829 6810 ft 241 kts 206°
2026-04-21 17:26 37.23208 -4.18455 6434 ft 241 kts 187°
2026-04-21 17:26 37.21585 -4.18321 6327 ft 230 kts 165°
2026-04-21 17:26 37.20195 -4.17468 6275 ft 218 kts 144°
2026-04-21 17:26 37.19187 -4.16109 6230 ft 209 kts 124°
2026-04-21 17:27 37.18640 -4.14462 6185 ft 202 kts 104°
2026-04-21 17:27 37.18549 -4.12696 6141 ft 206 kts 93°
2026-04-21 17:27 37.18570 -4.10893 6087 ft 207 kts 92°
2026-04-21 17:27 37.18590 -4.09090 5956 ft 207 kts 92°
2026-04-21 17:28 37.18609 -4.07290 5808 ft 206 kts 92°
2026-04-21 17:28 37.18627 -4.05492 5700 ft 206 kts 93°
2026-04-21 17:28 37.18645 -4.03703 5496 ft 206 kts 92°
2026-04-21 17:28 37.18662 -4.01910 5256 ft 205 kts 92°
2026-04-21 17:29 37.18682 -4.00136 5036 ft 202 kts 92°
2026-04-21 17:29 37.18712 -3.98367 5037 ft 204 kts 92°
2026-04-21 17:29 37.18747 -3.96593 5008 ft 204 kts 92°
2026-04-21 17:29 37.18772 -3.94820 4997 ft 203 kts 96°
2026-04-21 17:30 37.18529 -3.93123 4990 ft 192 kts 109°
2026-04-21 17:30 37.18194 -3.91596 5004 ft 177 kts 110°
2026-04-21 17:30 37.17856 -3.90110 5012 ft 177 kts 110°
2026-04-21 17:30 37.17516 -3.88630 4920 ft 177 kts 111°
2026-04-21 17:31 37.17177 -3.87162 4623 ft 175 kts 111°
2026-04-21 17:31 37.16850 -3.85714 4360 ft 167 kts 111°
2026-04-21 17:31 37.16555 -3.84372 4071 ft 158 kts 110°
2026-04-21 17:31 37.16269 -3.83079 3781 ft 152 kts 111°
2026-04-21 17:32 37.16086 -3.82216 3599 ft 152 kts 110°
2026-04-21 17:32 37.15713 -3.80521 3515 ft 152 kts 111°
2026-04-21 17:32 37.15413 -3.79248 3517 ft 152 kts 109°
2026-04-21 17:32 37.15087 -3.77979 3512 ft 153 kts 111°
2026-04-21 17:33 37.14868 -3.76682 3515 ft 153 kts 98°
2026-04-21 17:33 37.14782 -3.75344 3511 ft 154 kts 95°
2026-04-21 17:33 37.14717 -3.74001 3512 ft 155 kts 95°
2026-04-21 17:33 37.14649 -3.72646 3509 ft 156 kts 95°
2026-04-21 17:34 37.14592 -3.71297 3503 ft 156 kts 88°
2026-04-21 17:34 37.15047 -3.70094 3521 ft 157 kts 39°
2026-04-21 17:34 37.16031 -3.69572 3508 ft 154 kts
2026-04-21 17:34 37.17086 -3.69743 3500 ft 153 kts 343°
2026-04-21 17:35 37.18114 -3.70091 3489 ft 153 kts 341°
2026-04-21 17:35 37.18964 -3.70841 3270 ft 149 kts 295°
2026-04-21 17:35 37.19070 -3.72102 2918 ft 152 kts 257°
2026-04-21 17:35 37.18906 -3.73404 2571 ft 152 kts 266°
2026-04-21 17:36 37.18911 -3.74725 2185 ft 148 kts 266°
2026-04-21 17:36 37.18889 -3.76022 1960 ft 150 kts 269°
2026-04-21 17:36 37.18878 -3.77289 1867 ft 135 kts 269°
2026-04-21 17:36 37.18870 -3.78104 1869 ft 48 kts 269°
2026-04-21 17:37 37.18822 -3.78393 1866 ft 30 kts 238°
2026-04-21 17:37 37.18760 -3.78508 1871 ft 13 kts 214°
2026-04-21 17:37 37.18711 -3.78488 1867 ft 12 kts 117°
2026-04-21 17:37 37.18703 -3.78366 1870 ft 9 kts 89°
2026-04-21 17:38 37.18704 -3.78287 1868 ft 9 kts 89°
2026-04-21 17:38 37.18705 -3.78208 1868 ft 10 kts 89°
2026-04-21 17:38 37.18706 -3.78083 1868 ft 19 kts 89°
2026-04-21 17:38 37.18706 -3.77902 1869 ft 20 kts 92°
2026-04-21 17:39 37.18707 -3.77753 1868 ft 17 kts 88°
2026-04-21 17:39 37.18710 -3.77614 1867 ft 15 kts 88°
2026-04-21 17:39 37.18707 -3.77519 1868 ft 8 kts 110°
2026-04-21 17:39 37.18672 -3.77493 1869 ft 4 kts 171°
2026-04-21 17:40 37.18650 -3.77493 1869 ft 2 kts 179°
2026-04-21 17:40 37.18627 -3.77494 1870 ft 3 kts 192°
2026-04-21 17:40 37.18617 -3.77521 1867 ft 5 kts 264°
2026-04-21 17:40 37.18617 -3.77559 1869 ft 0 kts 270°